FW8288 Weather Reports


time (UTC)temp
F
wind
direction
speed
knots
gust
knots
rain 1hr
in
rain 24hr
in
rain mn
in
humidity
%
barometer
mb
20260510043105 73 0 0.0 0.0 0.00 0.77 0.77 87 1012.7
20260510041559 74 0 0.0 0.9 0.00 0.77 0.77 86 1012.5
20260510040058 74 0 0.0 0.0 0.00 0.77 0.77 86 1012.5
20260510034600 73 163 0.0 0.9 0.00 0.77 0.77 87 1012.7
20260510033113 72 0 0.0 0.0 0.00 0.77 0.77 90 1012.8
20260510031558 71 0 0.0 1.7 0.00 0.77 0.77 92 1012.7
20260510030104 71 0 0.0 0.0 0.00 0.77 0.77 93 1012.3
20260510024609 71 0 0.0 0.0 0.00 0.77 0.77 93 1011.7
20260510023100 71 0 0.0 0.0 0.00 0.77 0.77 92 1011.5
20260510021600 71 0 0.0 0.0 0.00 0.77 0.77 92 1011.0
20260510020059 71 0 0.0 3.5 0.00 0.77 0.77 92 1010.5
20260510014557 71 0 0.0 0.0 0.00 0.77 0.77 92 1010.0
20260510013057 71 0 0.0 0.0 0.00 0.77 0.77 92 1009.8
20260510011559 71 0 0.0 0.0 0.00 0.77 0.77 91 1009.7
20260510004601 70 0 0.0 0.0 0.38 0.77 0.77 88 1009.3
20260510003059 70 0 0.0 4.3 0.71 0.77 0.77 86 1009.5
20260510001601 69 163 0.0 0.9 0.77 0.77 0.77 88 1010.2
20260510000103 70 163 0.0 2.6 0.73 0.73 0.73 82 1010.7
20260509234559 72 165 0.9 8.7 0.39 0.39 0.39 77 1010.6
20260509233100 78 167 1.7 9.6 0.06 0.06 0.06 66 1009.5
20260509231601 86 165 1.7 5.2 0.00 0.00 0.00 66 1009.1
20260509230100 87 165 0.9 1.7 0.00 0.00 0.00 62 1008.9
20260509224559 87 0 0.0 0.0 0.00 0.00 0.00 60 1008.7
20260509223103 88 0 0.0 0.0 0.00 0.00 0.00 60 1008.6
20260509221600 88 165 0.9 3.5 0.00 0.00 0.00 60 1008.4
20260509220104 88 165 0.9 3.5 0.00 0.00 0.00 60 1008.6
20260509214628 90 165 0.0 1.7 0.00 0.00 0.00 59 1008.6
20260509213103 90 0 0.9 2.6 0.00 0.00 0.00 59 1008.6
20260509211605 90 165 1.7 4.3 0.00 0.00 0.00 59 1008.6
20260509210109 90 165 0.0 1.7 0.00 0.00 0.00 58 1008.9
20260509204600 90 0 0.0 2.6 0.00 0.00 0.00 58 1009.2
20260509203115 90 165 0.9 3.5 0.00 0.00 0.00 57 1009.3
20260509201600 91 165 0.0 3.5 0.00 0.00 0.00 56 1009.4
20260509200100 90 165 0.9 2.6 0.00 0.00 0.00 58 1009.6
20260509194600 90 165 0.9 3.5 0.00 0.00 0.00 56 1009.7
20260509193104 90 165 0.9 2.6 0.00 0.00 0.00 57 1009.8
20260509191633 88 165 0.0 2.6 0.00 0.00 0.00 61 1009.8
20260509190100 88 0 0.0 1.7 0.00 0.00 0.00 64 1009.9
20260509184602 88 0 0.0 0.9 0.00 0.01 0.00 63 1010.1
20260509183101 87 0 0.0 2.6 0.00 0.01 0.00 65 1010.4
20260509181604 87 165 1.7 3.5 0.00 0.01 0.00 63 1010.4
20260509180109 87 165 0.0 5.2 0.00 0.01 0.00 65 1010.8
20260509174621 87 0 0.9 4.3 0.00 0.03 0.00 65 1011.1
20260509173100 85 165 1.7 4.3 0.00 0.03 0.00 68 1011.2
20260509171606 84 0 0.0 3.5 0.00 0.03 0.00 76 1011.5
20260509170107 82 165 0.9 2.6 0.00 0.03 0.00 79 1011.7
20260509164600 81 0 0.9 2.6 0.00 0.03 0.00 82 1011.6
20260509163112 80 0 0.0 0.0 0.00 0.03 0.00 84 1011.8
20260509161556 79 0 0.0 0.0 0.00 0.03 0.00 86 1011.6
20260509160058 79 0 0.0 0.0 0.00 0.03 0.00 86 1011.6
20260509154558 78 0 0.0 0.0 0.00 0.03 0.00 87 1011.5
20260509153115 78 0 0.0 0.0 0.00 0.03 0.00 88 1011.4
20260509151600 78 0 0.0 1.7 0.00 0.03 0.00 88 1011.7
20260509150058 77 0 0.0 0.0 0.00 0.03 0.00 90 1011.4
20260509144557 76 0 0.0 0.0 0.00 0.04 0.00 91 1011.2
20260509143100 76 0 0.0 0.0 0.00 0.04 0.00 92 1011.0
20260509141557 76 0 0.0 0.0 0.00 0.04 0.00 93 1010.7
20260509134557 75 0 0.0 0.0 0.00 0.04 0.00 94 1010.9
20260509133057 75 0 0.0 0.0 0.00 0.04 0.00 94 1011.4
20260509131601 75 0 0.0 0.0 0.00 0.04 0.00 95 1011.7
20260509130107 75 0 0.0 0.0 0.00 0.04 0.00 95 1012.0
20260509124600 75 0 0.0 0.0 0.00 0.04 0.00 95 1011.3
20260509123100 74 0 0.0 0.0 0.00 0.04 0.00 95 1011.7
20260509121628 74 0 0.0 0.0 0.00 0.04 0.00 95 1011.4
20260509114608 74 0 0.0 0.0 0.00 0.04 0.00 95 1011.3
20260509113101 74 0 0.0 0.0 0.00 0.04 0.00 95 1011.2
20260509111600 74 0 0.0 0.0 0.00 0.04 0.00 95 1010.9
20260509110109 74 0 0.0 0.0 0.00 0.04 0.00 95 1011.0
20260509104600 74 0 0.0 0.0 0.00 0.04 0.00 94 1010.7
20260509103103 74 0 0.0 0.0 0.00 0.04 0.00 94 1010.7
20260509101618 74 0 0.0 0.0 0.00 0.04 0.00 94 1010.9
20260509100057 74 0 0.0 0.0 0.00 0.04 0.00 94 1010.8
20260509094609 74 0 0.0 0.0 0.00 0.04 0.00 94 1010.3
20260509093100 75 0 0.0 0.0 0.00 0.04 0.00 94 1010.2
20260509091607 75 0 0.0 0.0 0.00 0.04 0.00 94 1010.4
20260509090105 75 0 0.0 0.0 0.00 0.04 0.00 94 1010.8
20260509084602 75 0 0.0 0.0 0.00 0.04 0.00 94 1010.7
20260509083103 75 0 0.0 0.0 0.00 0.04 0.00 94 1010.6
20260509081559 75 0 0.0 0.0 0.00 0.04 0.00 94 1010.6
20260509080059 75 0 0.0 0.9 0.00 0.04 0.00 94 1010.4
20260509074559 75 165 0.0 1.7 0.00 0.04 0.00 94 1010.5
20260509073057 75 0 0.0 1.7 0.00 0.04 0.00 94 1010.3
20260509071556 75 0 0.0 0.0 0.00 0.04 0.00 94 1010.7
20260509070057 74 0 0.0 0.0 0.00 0.04 0.00 94 1011.0
20260509064604 74 0 0.0 0.0 0.00 0.04 0.00 93 1011.1
20260509063100 74 0 0.0 0.0 0.00 0.04 0.00 93 1011.1
20260509061558 74 0 0.0 0.0 0.00 0.04 0.00 93 1011.0
20260509060110 74 0 0.0 0.0 0.00 0.04 0.00 93 1011.1
20260509054606 74 0 0.0 0.0 0.00 0.04 0.00 93 1011.3
20260509053134 74 0 0.0 1.7 0.00 0.04 0.00 93 1011.2
20260509051559 74 0 0.0 2.6 0.00 0.04 0.00 92 1011.2
20260509050100 74 0 0.9 1.7 0.00 0.04 0.00 92 1011.3
20260509044659 74 0 0.9 2.6 0.00 0.04 0.04 92 1011.2